This is the latest recevied weather packets stored in our database for station/object W0DXV. If no packets are shown the sender has not sent any weather packets the latest 10 day(s).
| Time | Temp. | Humidity | Pressure | Rain* | Wind** | Luminosity | Snow |
|---|---|---|---|---|---|---|---|
| 1778039462 | 16.67° C | 73% | 1009.8 hPa | 0 mm | - | 0 W/m² | - |
| 1778039160 | 16.11° C | 75% | 1010 hPa | 0 mm | - | 0 W/m² | - |
| 1778038857 | 15.56° C | 76% | 1010 hPa | 0 mm | - | 0 W/m² | - |
| 1778038554 | 15.56° C | 76% | 1010 hPa | 0 mm | - | 0 W/m² | - |
| 1778038251 | 15° C | 78% | 1009.8 hPa | 0 mm | - | 0 W/m² | - |
| 1778037948 | 15° C | 79% | 1009.8 hPa | 0 mm | - | 0 W/m² | - |
| 1778037645 | 15° C | 79% | 1009.8 hPa | 0 mm | - | 0 W/m² | - |
| 1778037343 | 15° C | 79% | 1009.8 hPa | 0 mm | - | 0 W/m² | - |
| 1778037039 | 15° C | 79% | 1009.8 hPa | 0 mm | - | 0 W/m² | - |
| 1778036738 | 15° C | 79% | 1009.7 hPa | 0 mm | - | 0 W/m² | - |
| 1778036434 | 15° C | 79% | 1009.9 hPa | 0 mm | - | 0 W/m² | - |
| 1778036131 | 15° C | 79% | 1010.1 hPa | 0 mm | - | 0 W/m² | - |
| 1778035827 | 15° C | 79% | 1010 hPa | 0 mm | - | 0 W/m² | - |
| 1778035524 | 15° C | 79% | 1009.8 hPa | 0 mm | - | 0 W/m² | - |
| 1778035221 | 15° C | 78% | 1010 hPa | 0 mm | - | 0 W/m² | - |
| 1778034917 | 15° C | 78% | 1010.1 hPa | 0 mm | - | 0 W/m² | - |
| 1778034615 | 15° C | 77% | 1010 hPa | 0 mm | - | 0 W/m² | - |
| 1778034312 | 15° C | 77% | 1010.4 hPa | 0 mm | - | 0 W/m² | - |
| 1778034009 | 15° C | 76% | 1010.4 hPa | 0 mm | - | 0 W/m² | - |
| 1778033707 | 15.56° C | 76% | 1010.3 hPa | 0 mm | - | 0 W/m² | - |
| 1778033404 | 15.56° C | 76% | 1010.2 hPa | 0 mm | - | 0 W/m² | - |
| 1778033101 | 15.56° C | 75% | 1010.1 hPa | 0 mm | - | 0 W/m² | - |
| 1778032798 | 15.56° C | 74% | 1010.2 hPa | 0 mm | - | 0 W/m² | - |
| 1778032496 | 16.11° C | 74% | 1010.3 hPa | 0 mm | - | 0 W/m² | - |
| 1778032192 | 16.11° C | 73% | 1010.2 hPa | 0 mm | - | 0 W/m² | - |
* Rain latest hour (hover to see other rain measurements)
** Current wind speed in m/s (hover to see current wind gust speed)